Torna al catalogo

COSMOS 2251 DEB

AttivoLEO
NORAD 37340·DEBRIS·🇷🇺 Russia

Lanciato Jun 16, 1993 da Plesetsk Cosmodrome

Loading…

Prossimi Passaggi (prossime 24 ore)

TLE

AggiornatoSource: Space-Track

Epoca: Sep 14, 2026, 08:02 UTC

1 37340U 93036BLG 26257.33479962  .00000258  00000-0  95306-4 0  9995
2 37340  74.0244 130.0078 0018138 165.7956 194.3712 14.37176533880260

Traccia COSMOS 2251 DEB in tempo reale con AllMySat

Download on the App Store